Location: The Stocker AstroScience Center
(25.7579°N, 80.3725°W)
Time: 21:35:11
(UTC-05:00)

ISS - All Passes

Search period start: 29 January 2015 00:00
Search period end: 08 February 2015 00:00
Orbit: 401 x 408 km, 51.6° (Epoch: 29 January)

Date Brightness Start Highest point End Pass type
(mag) Time Alt. Az. Time Alt. Az. Time Alt. Az.
29 Jan - 05:30:08 10° NNW 05:33:07 32° NE 05:36:07 10° ESE visible
29 Jan - 07:07:57 10° W 07:09:24 12° SW 07:10:41 10° SSW daylight
29 Jan - 20:27:28 10° SSW 20:30:36 46° SE 20:33:45 10° NE visible
29 Jan - 22:06:25 10° NW 22:07:18 11° NW 22:08:04 10° NNW night (unlit)
30 Jan - 04:38:41 10° N 04:40:44 16° NE 04:42:52 10° E visible
30 Jan - 06:14:23 10° WNW 06:17:15 28° SW 06:20:06 10° S visible
30 Jan - 19:36:05 10° S 19:38:26 19° SE 19:40:53 10° ENE visible
30 Jan - 21:12:16 10° W 21:14:50 21° NW 21:17:22 10° N night (unlit)
31 Jan - 05:21:48 10° NW 05:25:05 73° SW 05:28:20 10° SE visible
31 Jan - 20:19:20 10° WSW 20:22:29 46° NW 20:25:38 10° NNE visible
01 Feb - 04:29:39 10° NNW 04:32:48 43° NE 04:35:57 10° ESE visible
01 Feb - 19:26:59 10° SSW 19:30:13 67° SE 19:33:27 10° NE visible
02 Feb - 03:37:56 10° N 03:40:24 20° NE 03:42:55 10° E night (unlit)
02 Feb - 05:14:15 10° WNW 05:16:49 21° SW 05:19:19 10° S visible
02 Feb - 18:35:15 10° S 18:37:58 25° SE 18:40:45 10° ENE visible
02 Feb - 20:12:16 10° W 20:14:28 16° NW 20:16:36 10° N visible
03 Feb - 02:47:29 10° NNE 02:47:52 10° NE 02:48:22 10° NE night (unlit)
03 Feb - 04:21:23 10° NW 04:24:35 51° SW 04:27:46 10° SSE night (unlit)
03 Feb - 17:44:51 10° SE 17:45:44 11° SE 17:46:48 10° ESE daylight
03 Feb - 19:19:00 10° WSW 19:21:59 34° NW 19:25:00 10° NNE visible
04 Feb - 03:29:02 10° NNW 03:32:16 59° NE 03:35:31 10° SE night (unlit)
04 Feb - 18:26:23 10° SW 18:29:37 87° WNW 18:32:53 10° NE visible
05 Feb - 02:37:04 10° NNW 02:39:51 25° NE 02:42:39 10° ESE night (unlit)
05 Feb - 04:14:05 10° W 04:16:11 16° SW 04:18:11 10° SSW night (unlit)
05 Feb - 17:34:20 10° SSW 17:37:18 34° SE 17:40:19 10° ENE daylight
05 Feb - 19:12:14 10° WNW 19:13:54 13° NW 19:15:28 10° N visible
06 Feb - 01:45:46 10° N 01:47:17 13° NE 01:48:55 10° ENE night (unlit)
06 Feb - 03:20:50 10° WNW 03:23:53 36° SW 03:26:56 10° SSE night (unlit)
06 Feb - 16:43:10 10° SSE 16:45:01 15° SE 16:46:59 10° E daylight
06 Feb - 18:18:32 10° WSW 18:21:19 26° NW 18:24:06 10° NNE daylight
07 Feb - 02:28:15 10° NW 02:31:33 83° NE 02:34:49 10° SE night (unlit)
07 Feb - 17:25:38 10° SW 17:28:51 62° NW 17:32:04 10° NE daylight
